SORCE (27651 NORAD) Tracking and Keplerian Element Data

This shows tracking and keplerian element data for the satellite.

Feedback or suggestion? Click here.




ElementValue
Catalog27651
NameSORCE
Epoch Orbit19694
Epoch Day34.66345369
Epoch Year2025
RAAN216.5847
Inclination39.9902
Eccentricity0.0018613
Argument of Perigee71.1489
Mean Anonmoly289.132
Mean Motion14.9887663
Decay Rate6.457E-05
L11 27651U 03004A 25034.66345369 .00006457 00000+0 53513-3 0 9995
L22 27651 39.9902 216.5847 0018613 71.1489 289.1320 14.98876630196943



Live tracking and technical data element details for SORCE (NORAD 27651). SORCE can be tracked NOW for your location showing map with azimuth and elevation plus other details from your city location.







IsCatalogInMostPopularTable: catalog: 27651, numindb: 488
Update: records affected: 1



GetName: 27651 SORCE

Hit Count: updated at: Thu, 15 May 2025 19:18:48 GMT